Weather History for Fallon NAS, NV

Change the Weather History Date:

Monday, January 14, 2013

  Actual Average Record
Temperature  
Mean Temperature 8 °F -  
Max Temperature 24 °F 45 °F 63 °F (1938)
Min Temperature -9 °F 21 °F -9 °F (2013)
Degree Days  
Heating Degree Days 58    
Moisture  
Dew Point 0 °F    
Average Humidity 71    
Maximum Humidity 87    
Minimum Humidity 44    
Precipitation  
Precipitation 0.00 in - - ()
Sea Level Pressure  
Sea Level Pressure 30.29 in    
Wind  
Wind Speed 3 mph (SE)    
Max Wind Speed 7 mph    
Max Gust Speed -    
Visibility 10 miles    
Events      
Averages and records for this station are not official NWS values.
T = Trace of Precipitation, MM = Missing Value Source: NWS Daily Summary

Daily Weather History Graph

Daily Weather History Graph

Search for Another Location

Airport:

Trip Planner

Search our weather history database for the weather conditions in past years. The results will help you decide how hot, cold, wet, or windy it might be!

Date:

Astronomy

Jan. 14, 2013 Rise Set
Actual Time 7:13 AM PST 4:54 PM PST
Civil Twilight 6:43 AM PST 5:24 PM PST
Nautical Twilight 6:10 AM PST 5:57 PM PST
Astronomical Twilight 5:38 AM PST 6:29 PM PST
Moon 8:51 AM PST (1/14) 8:44 PM PST (1/14)
Length of Visible Light 10h 40m
Length of Day
9h 41m
Waxing Crescent, 12% of the Moon is Illuminated
Jan 14
Waxing Crescent
Jan 18
First Quarter
Jan 26
Full
Feb 3
Last Quarter
Feb 9
New

Hourly Weather History & Observations

Time (PST) Temp. Windchill Dew Point Humidity Pressure Visibility Wind Dir Wind Speed Gust Speed Precip Events Conditions
12:56 AM -2.0 °F -10.1 °F -5.1 °F 87% 30.21 in 10.0 mi SSW 3.5 mph - N/A   Clear
1:56 AM -2.9 °F - -7.1 °F 82% 30.21 in 10.0 mi Calm Calm - N/A   Clear
2:56 AM -2.0 °F -10.1 °F -6.0 °F 83% 30.23 in 10.0 mi SSE 3.5 mph - N/A   Clear
3:56 AM -6.0 °F - -11.0 °F 79% 30.23 in 10.0 mi Calm Calm - N/A   Clear
4:56 AM -9.0 °F - -11.9 °F 87% 30.23 in 10.0 mi Calm Calm - N/A   Clear
5:56 AM -6.0 °F -16.9 °F -9.0 °F 87% 30.25 in 10.0 mi South 4.6 mph - N/A   Clear
6:13 AM -5.8 °F -19.9 °F -11.2 °F 77% 30.38 in 10.0 mi SSE 6.9 mph - N/A   Partly Cloudy
6:56 AM -6.0 °F -18.6 °F -11.0 °F 79% 30.27 in 10.0 mi SSE 5.8 mph - N/A   Partly Cloudy
7:56 AM -2.0 °F -12.2 °F -6.0 °F 83% 30.28 in 10.0 mi South 4.6 mph - N/A   Partly Cloudy
8:56 AM 6.1 °F -0.9 °F 1.9 °F 83% 30.31 in 10.0 mi SE 3.5 mph - N/A   Scattered Clouds
9:56 AM 10.0 °F - 5.0 °F 80% 30.32 in 10.0 mi Calm Calm - N/A   Scattered Clouds
10:56 AM 15.1 °F - 7.0 °F 70% 30.30 in 10.0 mi Calm Calm - N/A   Scattered Clouds
11:56 AM 18.0 °F - 7.0 °F 62% 30.28 in 10.0 mi Calm Calm - N/A   Scattered Clouds
12:56 PM 21.0 °F 13.4 °F 7.0 °F 55% 30.28 in 10.0 mi NE 5.8 mph - N/A   Scattered Clouds
1:56 PM 23.0 °F 14.7 °F 8.1 °F 53% 30.29 in 10.0 mi ENE 6.9 mph - N/A   Scattered Clouds
2:56 PM 24.1 °F 19.7 °F 5.0 °F 44% 30.30 in 10.0 mi NE 3.5 mph - N/A   Overcast
3:56 PM 23.0 °F 15.8 °F 7.0 °F 50% 30.31 in 10.0 mi East 5.8 mph - N/A   Mostly Cloudy
4:56 PM 19.0 °F 13.9 °F 6.1 °F 57% 30.30 in 10.0 mi SE 3.5 mph - N/A   Mostly Cloudy
5:56 PM 16.0 °F 8.8 °F 5.0 °F 62% 30.32 in 10.0 mi East 4.6 mph - N/A   Scattered Clouds
6:56 PM 14.0 °F 3.9 °F 3.9 °F 64% 30.31 in 10.0 mi SE 6.9 mph - N/A   Partly Cloudy
7:56 PM 14.0 °F 3.9 °F 5.0 °F 67% 30.32 in 10.0 mi SE 6.9 mph - N/A   Scattered Clouds
8:56 PM 14.0 °F 5.1 °F 5.0 °F 67% 30.32 in 10.0 mi SE 5.8 mph - N/A   Partly Cloudy
9:56 PM 14.0 °F 5.1 °F 5.0 °F 67% 30.33 in 10.0 mi SE 5.8 mph - N/A   Clear
10:56 PM 10.0 °F -0.9 °F 3.0 °F 73% 30.33 in 10.0 mi East 6.9 mph - N/A   Mostly Cloudy
11:56 PM 12.9 °F - 5.0 °F 71% 30.35 in 10.0 mi Calm Calm - N/A   Overcast